Location: Chiroubles
(46.1812°N, 4.6660°E)
Time: 02:32:05
(UTC+00:00)

Cosmos 773 Rocket - Pass Details

Date: 15 August 2020
Orbit: 746 x 776 km, 74.1° (Epoch: 19 September)

Event Time Altitude Azimuth Distance (km) Brightness Sun altitude
Rises 23:11:13 0° 337° (NNW) 3,203 8.3 -29.7°
Reaches altitude 10° 23:13:35 10° 337° (NNW) 2,273 7.3 -29.7°
Enters shadow 23:17:41 57° 333° (NNW) 877 4.4 -29.8°
